TIANMU-1 14

Last updated on Wed Sep 23 2026 00:03:10 GMT+0000 (Coordinated Universal Time)

1 58648U 23205D 26265.60215306 .00003682 00000+0 13948-3 0 9993 2 58648 97.3387 284.7952 0006788 6.5921 353.5406 15.27515843152374
UTC large
Height (km)
Speed (km/s)
/
Latitude / Longitude
Inclination (degrees)
Orbital Period (minutes)
Azimuth
Elevation
Range (km)
Doppler Factor

Next 0 passes for location: London (51.5072 / 0.1276)

No passes found over London.
TIANMU-1 14